Location: Abyssinia Baptist Church
(32.7840°N, 96.7578°W)
Time: 10:40:53
(UTC+00:00)

H-2A R/B - Pass Details

Date: 07 July 2022
Orbit: 577 x 651 km, 98.5° (Epoch: 07 August)

Event Time Altitude Azimuth Distance (km) Brightness Sun altitude
Rises 02:36:20 0° 14° (NNE) 2,954 5.9 -11.1°
Reaches altitude 10° 02:38:33 10° 15° (NNE) 2,048 5.0 -11.5°
Maximum altitude 02:43:02 80° 102° (ESE) 664 2.1 -12.2°
Drops below altitude 10° 02:47:31 10° 190° (S) 2,048 4.5 -13.0°
Sets 02:49:43 0° 191° (SSW) 2,954 5.3 -13.4°
